Regional Weather Roundup
Issued by NWS

Home | Current Version | Previous Version | Text Only | Print | Product List | Glossary On
Versions: 1 2 3 4 5 6 7 8 9 10 11 12 13 14 15 16 17 18 19 20 21 22 23 24 25 26 27 28 29 30 31 32 33 34 35 36 37 38 39 40 41 42 43 44 45 46 47 48 49 50
000
ASCA44 KEWX 220520
RWRMX

LATIN AMERICA AND CARIBBEAN REGIONAL WEATHER ROUNDUP
NATIONAL WEATHER SERVICE AUSTIN/SAN ANTONIO TX
1100 PM CST SAT JAN 21 2017

NOTE: "FAIR" INDICATED FEW OR NO CLOUDS BELOW 12,000 FEET WITH NO
SIGNIFICANT WEATHER AND/OR OBSTRUCTIONS TO VISIBILITY.

BAJA CALIFORNIA

CITY           SKY/WX    TMP DP  RH WIND       PRES   REMARKS
LA PAZ         PTCLDY    64  55  72 SE6       30.14R
MEXICALI       CLEAR     54  39  58 W5        30.07R
S.J. DEL CABO  MOCLDY    63  54  72 CALM      30.10S
TIJUANA        PTCLDY    50  43  76 CALM      30.15R

NORTHWESTERN MEXICO

CITY           SKY/WX    TMP DP  RH WIND       PRES   REMARKS
CULIACAN       CLEAR     61  55  82 CALM      30.07R
HERMOSILLO     CLEAR     55  48  76 CALM      30.14R
LOS MOCHIS       N/A    N/A N/A N/A MISG        N/A

NORTHEASTERN MEXICO

CITY           SKY/WX    TMP DP  RH WIND       PRES   REMARKS
MONCLOVA         N/A    N/A N/A N/A MISG        N/A
MONTERREY      CLEAR     88   0   3 W21G40    29.59R
REYNOSA          N/A    N/A N/A N/A MISG        N/A
CD. VICTORIA     N/A    N/A N/A N/A MISG        N/A

WESTERN MEXICO

CITY           SKY/WX    TMP DP  RH WIND       PRES   REMARKS
AGUASCALIENTES CLEAR     52  21  30 S8        30.26R
COLIMA           N/A    N/A N/A N/A MISG        N/A
DEL BAJIO      CLEAR     52  25  35 NW3       30.29R
GUADALAJARA    CLEAR     55  23  28 N3        30.21R
MAZATLAN       CLEAR     55  54  94 CALM      30.06R
P. VALLARTA    PTCLDY    70  66  88 NE6       30.05R
URUAPAN          N/A    N/A N/A N/A MISG        N/A
ZACATECAS      CLEAR     46  21  36 S13       30.24R WCI  41

CENTRAL MEXICO

CITY           SKY/WX    TMP DP  RH WIND       PRES   REMARKS
CUERNAVACA       N/A    N/A N/A N/A MISG        N/A
MEXICO CITY    CLEAR     59  39  47 SE5       30.30R
MORELIA        CLEAR     55  43  62 CALM      30.23R
POZA RICA        N/A    N/A N/A N/A MISG        N/A
QUERETARO      CLEAR     59  27  29 W9        30.26R
S. LUIS POTOSI CLEAR     61   9  12 SW9       30.13R
TAMPICO        CLEAR     81  55  41 S14       29.58S
TOLUCA         CLEAR     39  32  75 N6        30.38R WCI  35

SOUTHERN MEXICO

CITY           SKY/WX    TMP DP  RH WIND       PRES   REMARKS
ACAPULCO       PTCLDY    79  72  78 W5        29.95R
B. DE HUATULCO   N/A    N/A N/A N/A MISG        N/A
P. ESCONDIDO     N/A    N/A N/A N/A MISG        N/A
VERACRUZ       CLEAR     75  66  73 SW5       29.70S

YUCATAN PENINSULA

CITY           SKY/WX    TMP DP  RH WIND       PRES   REMARKS
CAMPECHE         N/A    N/A N/A N/A MISG        N/A
CANCUN         PTCLDY    79  75  89 SE9       29.81F
CHETUMAL         N/A    N/A N/A N/A MISG        N/A
CD. DEL CARMEN   N/A    N/A N/A N/A MISG        N/A
COZUMEL        PTCLDY    77  75  94 S6        29.81R
MERIDA         CLEAR     75  70  83 E6        29.76S
MINATITLAN       N/A    N/A N/A N/A MISG        N/A
TAPACHULA      PTCLDY    73  72  94 CALM      29.96S
TUX. GUTIERREZ CLEAR     75  59  57 S5        29.99R
VILLAHERMOSA   CLEAR     70  68  94 CALM      29.77S

CENTRAL AMERICA

CITY           SKY/WX    TMP DP  RH WIND       PRES   REMARKS
MANAGUA        PTCLDY    73  70  88 CALM      29.92S SMOKE

CARIBBEAN

CITY           SKY/WX    TMP DP  RH WIND       PRES   REMARKS
CURACAO        PTCLDY    79  72  78 NE12      29.94F
KINGSTON       PTCLDY    77  66  69 N5        29.94F
NASSAU           N/A     72  72 100 CALM      29.94F
SAN JUAN       PTCLDY    75  66  73 S3        29.99S
SANTO DOMINGO  PTCLDY    64  63  94 CALM      29.97S
ST. CROIX      CLEAR     68  64  88 N5        29.99
ST. MAARTEN    PTCLDY    73  66  78 CALM      29.94F
ST. THOMAS     MOCLDY    73  66  78 CALM      29.97

$$





USA.gov is the U.S. government's official web portal to all federal, state and local government web resources and services.